1st Responders/1st Detectors/Storm Spotters Weather Summary for Clay County, KY

Forecast Maps


Reg. NEXRAD Animation


National Fire Danger: Day 1 & 2 Map

Current NWS Watch/Warnings

SPC Convective Day 1 Outlook


Day 2 Outlook

(Click images to enlarge|Page will refresh every 5 minutes)
UK Ag. Weather Center Desktop Severe Weather Service[HERE]
Clay County, KY Hazardous Weather Outlook Webcast
(9 AM to 9 PM Mon-Fri)
[Fast]
[Dial-up]


UKAWC 1st Detectors/1st Responders Precision Weather Forecast For CLAY County, Kentucky
(based on the NWS County Digital Forecast)

ISSUED AT 06:00 UTC ON SUNDAY FEB 18 2018
DAY SUNDAY
EDT 3HR 3A 4A 5A 6A 7A 8A 9A 10A 11A NOON 1P 2P 3P 4P 5P 6P 7P
MAX/MIN -- -- -- -- -- 34° -- -- -- -- -- -- -- -- -- -- 56°
TEMP 40° 38° 36° 36° 34° 34° 34° 36° 40° 41° 45° 49° 54° 56° 56° 56° 52°
SKY COVER 87% 85% 84% 71% 58% 46% 42% 39% 36% 31% 25% 20% 17% 14% 10% 15% 20%
Clouds
DEW PT 38° 36° 36° 34° 34° 32° 32° 32° 32° 32° 34° 34° 34° 34° 34° 34° 34°
RH 92% 92% 96% 96% 95% 92% 92% 85% 75% 70% 63% 53% 46% 43% 42% 43% 48%
POP 12HR -- -- -- -- -- 19% -- -- -- -- -- -- -- -- -- -- --
RAIN/SNOW (liq.equ) -- -- -- -- -- 0.00in -- -- -- -- -- 0.00in -- -- -- -- --
SNOWFALL -- -- -- -- -- 0in -- -- -- -- -- 0in -- -- -- -- --
WIND SPEED(MPH) 5 5 5 2 2 1 1 1 2 2 5 5 5 5 5 5 5
WIND Gust(MPH) 7 7 7 6 6 2 2 5 5 6 7 7 7 7 7 7 7
WIND DIR W NW NW NW N N N NE E E E SE SE SE SE SE SE
DEW Mod Dew Mod Dew Mod Dew Patchy Frost Patchy Frost Frost Frost Frost Frost Lgt Dew -- -- -- -- -- -- --
HeatIndex 38 35 33 33 32 34 34 36 37 40 45 49 54 56 56 56 52
Rain Showers -- -- -- -- -- -- -- -- -- -- -- -- -- -- -- -- --
Thunder Storm -- -- -- -- -- -- -- -- -- -- -- -- -- -- -- -- --
Fog Patchy Patchy Patchy Patchy Patchy -- -- -- -- -- -- -- -- -- -- -- --
WIND CHILL 37° 35° 32° -- -- -- -- -- -- -- 43° -- -- -- -- -- --
SPRAY COND
DRY COND
LIVESTOCK COLDSTRESS



DAY MONDAY TUESDAY WEDNESDAY THURSDAY FRIDAY SATURDAY
EDT 6HR 8P 9P 10P 11P MIDN 1A 2A 3A 4A 5A 6A 7A 8A 9A 10A 11A NOON 1P 2P 5P 8P 11P 2A 5A 8A 11A 2P 5P 8P 2A 8A 2P 8P 2A 8A 2P 8P 2A 8A 2P 8P 2A 8A 2P 8P
MAX/MIN -- -- -- -- -- -- -- -- -- -- -- -- 43° -- -- -- -- -- -- 72° -- -- -- -- 58° -- -- 79° -- -- 59° 72° -- -- 49° 58° -- -- 49° 67° -- -- 56° 65° --
TEMP 49° 45° 43° 43° 45° 47° 47° 47° 47° 47° 49° 49° 52° 56° 58° 59° 63° 67° 68° 72° 65° 61° 61° 59° 58° 67° 76° 77° 70° 61° 61° 72° 59° 54° 49° 58° 56° 52° 50° 67° 63° 58° 56° 65° 63°
SKY COVER 25% 33% 40% 48% 62% 75% 89% 88% 87% 86% 87% 89% 90% 89% 88% 87% 86% 85% 84% 82% 66% 54% 72% 63% 77% 47% 46% 36% 43% 63% 69% 81% 91% 98% 98% 96% 91% 77% 82% 81% 70% 80% 81% 87% 88%
Clouds
DEW PT 34° 36° 36° 38° 40° 41° 43° 45° 45° 47° 47° 49° 49° 50° 50° 52° 52° 54° 56° 56° 56° 56° 54° 54° 54° 58° 58° 56° 56° 56° 56° 58° 54° 50° 49° 50° 49° 47° 49° 58° 54° 54° 54° 54° 52°
RH 56% 68% 76% 82% 85% 82% 85% 89% 92% 96% 96% 96% 92% 83% 77% 74% 70% 65% 62% 57% 72% 83% 81% 83% 86% 70% 52% 48% 63% 80% 86% 61% 80% 89% 96% 77% 74% 85% 92% 73% 75% 86% 93% 69% 67%
POP 12HR 2% -- -- -- -- -- -- -- -- -- -- -- 52% -- -- -- -- -- -- -- 19% -- -- -- 0% -- -- -- 0% -- 18% -- 70% -- 90% -- 69% -- 15% -- 32% -- 25% -- 43%
RAIN/SNOW (liq.equ) 0.00in -- -- -- -- -- 0.00in -- -- -- -- -- 0.06in -- -- -- -- -- 0.00in -- 0.00in -- 0.00in -- 0.00in -- 0.00in -- 0.00in -- -- -- -- -- -- -- -- -- -- -- -- -- -- -- --
SNOWFALL 0in -- -- -- -- -- 0in -- -- -- -- -- 0in -- -- -- -- -- 0in -- 0in -- 0in -- 0in -- 0in -- 0in -- -- -- -- -- -- -- -- -- -- -- -- -- -- -- --
WIND SPEED(MPH) 5 5 6 6 6 7 7 7 7 7 7 7 7 7 7 7 8 8 9 8 7 7 7 7 7 9 13 9 8 7 7 8 5 6 6 6 5 2 2 7 6 7 7 8 7
WIND DIR SE S S S S S S S S S S S S S S S S S S S S S S S S S S S S S SW SW N N N N N E SE S S S SW SW SW
HeatIndex 49 45 40 40 41 47 47 47 47 47 49 49 52 56 58 59 63 67 68 72 65 61 61 59 58 67 76 77 70 61 61 72 59 54 49 58 56 52 50 67 63 58 56 65 63
Rain Showers -- -- -- Slight Chance Slight Chance Slight Chance Chance Chance Chance Chance Chance Chance Slight Chance Slight Chance Slight Chance -- -- -- -- -- -- -- -- -- -- -- -- -- -- -- Slight Chance Chance Definite Definite Likely Likely Slight Chance -- Slight Chance Chance Chance Slight Chance Slight Chance Chance --
Thunder Storm -- -- -- -- -- -- -- -- -- -- -- -- -- -- -- -- -- -- -- -- -- -- -- -- -- -- -- -- -- -- -- Chance Slight Chance -- -- -- -- -- -- -- -- -- -- -- --
Fog -- -- -- -- -- -- -- -- -- -- -- -- -- -- -- -- -- -- -- -- -- -- -- -- -- -- -- -- -- -- -- -- -- -- -- -- -- -- -- -- -- -- -- -- --
WIND CHILL -- 43° 39° 39° 42° -- -- -- -- -- -- -- -- -- -- -- -- -- -- -- -- -- -- -- -- -- -- -- -- -- -- -- -- -- -- -- -- -- -- -- -- -- -- -- --
SPRAY COND
DRY COND
LIVESTOCK COLDSTRESS

Click on individual weather variable above in left-hand column (ie., TEMP, RH, QPF 12HR) to view state forecast maps






NWS 48 Hr. Forecast Maps,

Regional Hourly Observations For CLAY County, Kentucky
Issued at 100 AM EST SUN FEB 18 2018
SOUTHEAST KENTUCKY
  
CITY           SKY/WX    TMP DP  RH WIND       PRES   REMARKS
JACKSON        CLOUDY    41  38  89 MISG      30.19R                  
LONDON         CLOUDY    43  38  82 W10       30.22R                  
SOMERSET       CLOUDY    41  39  93 W7        30.26R                  
MIDDLESBORO    CLOUDY    46  42  85 NW13      30.22R                  
MONTICELLO     NOT AVBL                                               


Current NOWCAST not available:
Nowcasts are not issued routinely during fair weather. Only when
precipitation or other significant weather is occuring in this county will these
forecasts be issued. Currently, there is no short term forecast in effect.


Fire Weather Forecast For CLAY County, KY
Provided by the National Weather Service:

Issued at: Sun Feb 18 01:05:01 EST 2018

Elkhorn City, Pikeville, and South Williamson
422 PM EST Sat Feb 17 2018

.TONIGHT...
Sky/weather.........Cloudy with showers likely early. Patchy fog.
Min Temperature.....Around 35. 
   24 hr trend......1 degree cooler. 
Max Humidity........98 percent. 
   24 hr trend......Unchanged. 
Wind (20 ft)........Northwest winds 5 to 10 mph. 
LAL.................1. 
Haines Index........2 or very low potential for large plume 
                    dominated fire growth. 
ADI.................21. 
LVORI...............6. 
Prob of precip......60 percent. 
QPF (inches)........0.08 - 0.25 inches. 

.SUNDAY...
Sky/weather.........Mostly sunny. 
Max Temperature.....54-59. 
   24 hr trend......14 degrees warmer. 
Min Humidity........37-43 percent. 
   24 hr trend......47 percent drier. 
Wind (20 ft)........North winds around 5 mph shifting to the 
                    southeast in the afternoon. 
LAL.................1. 
Haines Index........4 or low potential for large plume dominated 
                    fire growth. 
Mixing Height.......2500 ft agl. 
Transport Winds.....North around 5 mph shifting to the southeast in 
                    the afternoon. 
Dispersion Index....22. 
Vent Rate...........Poor (22300 knot-ft). 
ADI.................25. 
LVORI...............4. 
Prob of precip......0 percent. 
QPF (inches)........0.01 inches. 

.SUNDAY NIGHT...
Sky/weather.........Partly cloudy then becoming mostly cloudy. A 
                    slight chance of rain showers in the evening, 
                    then a chance of rain showers. 
Min Temperature.....43-48. 
   24 hr trend......9 degrees warmer. 
Max Humidity........87-97 percent. 
   24 hr trend......Unchanged. 
Wind (20 ft)........South winds 5 to 10 mph. 
LAL.................1. 
Haines Index........4 or low potential for large plume dominated 
                    fire growth. 
ADI.................11. 
LVORI...............5. 
Prob of precip......50 percent. 
QPF (inches)........0.03 - 0.15 inches. 

.WASHINGTONS BIRTHDAY...
Sky/weather.........Mostly cloudy. A chance of rain showers in the 
                    morning. 
Max Temperature.....68-73. 
   24 hr trend......14 degrees warmer. 
Min Humidity........54-64 percent. 
   24 hr trend......17 percent wetter. 
Wind (20 ft)........South winds 5 to 10 mph. 
LAL.................1. 
Haines Index........3 or very low potential for large plume 
                    dominated fire growth. 
Mixing Height.......2700 ft agl. 
Transport Winds.....South around 15 mph increasing to southwest 
                    around 25 mph early in the afternoon. 
Dispersion Index....56. 
Vent Rate...........Good (55800 knot-ft). 
ADI.................20 increasing to 53 in the afternoon. 
LVORI...............4. 
Prob of precip......30 percent. 
QPF (inches)........0.04 inches. 

SPC's Fire Weather Web Tool (Excellent!), SPC's Fire Weather Outlooks, NWS Fire Weather WEB, Fire Danger Class Map,
Keetch-Byram Drought Index, ROMAN Web, Haines Index ,
WFAS's 10-hr Dead Fuel Moist., WFAS's 100-hr Dead Fuel Moist., Probablity of Ignition, Visual blackness Map, Palmer Drought Index, HPC's Rainfall Forecast Maps


Hazardous Weather Outlook For CLAY County, Kentucky
733 PM EST Sat Feb 17 2018

 DAY ONE  Tonight.

Significant rises along portions of the Kentucky, Red, and 
Cumberland River basins are expected tonight.

 DAYS TWO THROUGH SEVEN  Sunday through Friday.

High water is expected along portions of the Kentucky, Red, and 
Cumberland River basins Sunday into Monday. 

Thunderstorms are possible Wednesday into Wednesday evening. 

 SPOTTER INFORMATION STATEMENT  

Spotter activation is not anticipated at this time.

Latest CLAY County, Kentucky Watches, Warnings and Advisories.
Additional Drought Info.: UKAWC Drought Page, Kentucky Drought Watch


7-Day Forecast For CLAY County, KY

TONIGHT
Cloudy. Patchy fog through the night. Patchy drizzle. Lows in the mid 30s. Light winds.

SUNDAY
Mostly sunny. Highs in the upper 50s. Light winds.

SUNDAY NIGHT
Partly cloudy in the evening, then a slight chance of showers. Cloudy with a chance of showers late. Lows in the mid 40s. Light winds. Chance of rain 50 percent.

WASHINGTONS BIRTHDAY
Mostly cloudy. A 20 percent chance of showers in the morning. Highs in the lower 70s. South winds around 10 mph.

MONDAY NIGHT
Mostly cloudy. Lows in the upper 50s. Light winds becoming south around 10 mph late.

TUESDAY
Mostly sunny. Highs in the upper 70s.

TUESDAY NIGHT
Mostly cloudy with a 20 percent chance of showers. Lows in the lower 60s.

WEDNESDAY
Mostly cloudy with showers likely and a chance of thunderstorms. Highs in the lower 70s. Chance of rain 70 percent.

WEDNESDAY NIGHT
Showers and a slight chance of thunderstorms. Lows around 50. Chance of rain 90 percent.

THURSDAY
Cloudy with showers likely. Highs in the upper 50s. Chance of rain 70 percent.

THURSDAY NIGHT
Mostly cloudy with a 20 percent chance of showers. Lows in the upper 40s.

FRIDAY
Mostly cloudy with a 30 percent chance of showers. Highs in the upper 60s.

FRIDAY NIGHT
Mostly cloudy with a 30 percent chance of showers. Lows in the mid 50s.

SATURDAY
Mostly cloudy with a 40 percent chance of showers. Highs in the upper 60s.

Ag Weather Center, Department of Biosystems & Agricultural Engineering, University of Kentucky